This is the latest recevied weather packets stored in our database for station/object KD5VOO. If no packets are shown the sender has not sent any weather packets the latest 10 day(s).
| Time | Temp. | Humidity | Pressure | Rain* | Wind** | Luminosity | Snow |
|---|---|---|---|---|---|---|---|
| 1777606954 | 19.44° C | 78% | 1010.5 hPa | 0 mm | - | 0 W/m² | - |
| 1777606650 | 19.44° C | 78% | 1010.2 hPa | 0 mm | - | 0 W/m² | - |
| 1777606346 | 19.44° C | 78% | 1009.9 hPa | 0 mm | - | 0 W/m² | - |
| 1777606046 | 19.44° C | 78% | 1009.9 hPa | 0 mm | - | 0 W/m² | - |
| 1777605742 | 19.44° C | 78% | 1010.2 hPa | 0 mm | - | 0 W/m² | - |
| 1777605440 | 19.44° C | 78% | 1010.2 hPa | 0 mm | - | 0 W/m² | - |
| 1777605138 | 20° C | 78% | 1010.2 hPa | 0 mm | - | 0 W/m² | - |
| 1777604833 | 20° C | 78% | 1010.2 hPa | 0 mm | - | 0 W/m² | - |
| 1777604530 | 20° C | 78% | 1010.2 hPa | 0 mm | - | 0 W/m² | - |
| 1777604225 | 20° C | 78% | 1009.9 hPa | 0 mm | - | 0 W/m² | - |
| 1777603921 | 20° C | 78% | 1009.9 hPa | 0 mm | - | 0 W/m² | - |
| 1777603619 | 20.56° C | 78% | 1009.5 hPa | 0 mm | - | 0 W/m² | - |
| 1777603314 | 20.56° C | 78% | 1009.5 hPa | 0 mm | - | 0 W/m² | - |
| 1777603010 | 20.56° C | 78% | 1009.5 hPa | 0 mm | - | 0 W/m² | - |
| 1777602705 | 20.56° C | 78% | 1009.9 hPa | 0 mm | - | 0 W/m² | - |
| 1777602400 | 20.56° C | 78% | 1009.5 hPa | 0 mm | - | 0 W/m² | - |
| 1777602097 | 20.56° C | 78% | 1009.5 hPa | 0 mm | - | 0 W/m² | - |
| 1777585702 | 21.67° C | 76% | 1008.5 hPa | 3.56 mm | - | 0 W/m² | - |
| 1777585102 | 22.22° C | 76% | 1007.8 hPa | 7.11 mm | - | 4 W/m² | - |
| 1777581472 | 23.33° C | 74% | 1007.5 hPa | 0 mm | - | 1 W/m² | - |
| 1777580862 | 23.33° C | 74% | 1007.1 hPa | 0 mm | - | 4 W/m² | - |
| 1777579950 | 23.89° C | 74% | 1007.8 hPa | 0 mm | - | 9 W/m² | - |
| 1777579645 | 23.89° C | 73% | 1007.5 hPa | 0 mm | - | 24 W/m² | - |
| 1777578735 | 23.89° C | 73% | 1008.2 hPa | 0 mm | - | 35 W/m² | - |
| 1777578435 | 23.89° C | 73% | 1008.2 hPa | 0 mm | - | 44 W/m² | - |
* Rain latest hour (hover to see other rain measurements)
** Current wind speed in m/s (hover to see current wind gust speed)